Kyokuho Maru No.15 — JI3715 — position and weather

sailwx.info

Track history (hours):
 
Tides and Currents Weather Stations Pressure Air Temp Water Temp Dewpoint Dewpoint Depression Visibility Wind Speed Wind Dir Waves Ship Positions

Kyokuho Maru No.15

Last reported at 2014-Jul-25 03:33 UTC. Time now 2014-Jul-25 03:44 UTC.
Position N 35°22' E 139°42'.

Length 63 m; draft 3.5 m.

Type: Tanker. MMSI: 431301714.

Date/timePositionNaut miles runAvg speedWind from/ knotsBaromVisibWave heightAir tempDewpointWater temp
2014-Jul-25 03:33N 35°22' E 139°42'10 9.9
2014-Jul-25 02:33N 35°31' E 139°46'0 0.4
2014-Jul-25 01:33N 35°32' E 139°45'0 0.0
2014-Jul-25 00:33N 35°32' E 139°45'0 0.0
2014-Jul-24 23:33N 35°32' E 139°45'4 3.6
2014-Jul-24 22:33N 35°30' E 139°49'1111.3
2014-Jul-24 21:33N 35°35' E 140°02'4 3.6
2014-Jul-24 20:33N 35°36' E 140°06'0 0.0
2014-Jul-24 19:33N 35°36' E 140°06'0 0.0
2014-Jul-24 18:33N 35°36' E 140°06'0 0.0
2014-Jul-24 17:33N 35°36' E 140°06'0 0.0
2014-Jul-24 16:33N 35°36' E 140°06'0 0.0
2014-Jul-24 15:33N 35°36' E 140°06'0 0.0
2014-Jul-24 14:33N 35°36' E 140°06'0 0.0
2014-Jul-24 13:33N 35°36' E 140°06'0 0.0
2014-Jul-24 12:33N 35°36' E 140°06'0 0.0
2014-Jul-24 11:33N 35°36' E 140°06'0 0.0
2014-Jul-24 10:33N 35°36' E 140°06'0 0.0
2014-Jul-24 09:33N 35°36' E 140°06'0 0.0
2014-Jul-24 08:33N 35°36' E 140°06'0 0.0
2014-Jul-24 07:33N 35°36' E 140°06'0 0.0
2014-Jul-24 06:33N 35°36' E 140°06'7 6.6
2014-Jul-24 05:33N 35°38' E 139°59'3 3.2
2014-Jul-24 04:33N 35°40' E 139°56'0 0.0
2014-Jul-24 03:33N 35°40' E 139°56'4 4.3
2014-Jul-24 02:33N 35°37' E 139°59'10 8.4
2014-Jul-24 01:25N 35°27' E 139°58'0 0.0
2014-Jul-24 00:28N 35°27' E 139°58'0 0.0
2014-Jul-23 23:29N 35°27' E 139°58'3 2.4
2014-Jul-23 22:26N 35°28' E 139°56'0 0.0
2014-Jul-23 21:32N 35°28' E 139°56'0 0.0
2014-Jul-23 20:29N 35°28' E 139°56'0 0.0
2014-Jul-23 19:32N 35°28' E 139°56'0 0.0
2014-Jul-23 18:29N 35°28' E 139°56'0 0.0
2014-Jul-23 17:32N 35°28' E 139°56'0 0.0
2014-Jul-23 16:32N 35°28' E 139°56'0 0.0
2014-Jul-23 15:32N 35°28' E 139°56'2 2.3
2014-Jul-23 14:33N 35°28' E 139°53'1211.5
2014-Jul-23 13:33N 35°19' E 139°44'1111.1
2014-Jul-23 12:33N 35°08' E 139°45'1211.9
2014-Jul-23 11:32N 34°60' E 139°35'1813.1
2014-Jul-23 10:10N 34°49' E 139°17'226 9.8
2014-Jul-22 11:08N 34°06' E 134°48'  
2014-Jul-15 10:30N 34°38' E 135°00'1011.0
2014-Jul-15 09:33N 34°37' E 135°13'5 4.7
2014-Jul-15 08:33N 34°39' E 135°18'0 0.0
2014-Jul-15 07:33N 34°39' E 135°18'0 0.0
2014-Jul-15 06:33N 34°39' E 135°18'0 0.0
2014-Jul-15 05:33N 34°39' E 135°18'0 0.0
2014-Jul-15 04:33N 34°39' E 135°18'  
Track history (hours):
 
Tides and Currents Weather Stations Pressure Air Temp Water Temp Dewpoint Dewpoint Depression Visibility Wind Speed Wind Dir Waves Ship Positions

Kyokuho Maru No.15

Last reported at 2014-Jul-25 03:33 UTC. Time now 2014-Jul-25 03:44 UTC.
Position N 35°22' E 139°42'.

Length 63 m; draft 3.5 m.

Type: Tanker. MMSI: 431301714.

Date/timePositionNaut miles runAvg speedWind from/ knotsBaromVisibWave heightAir tempDewpointWater temp
2014-Jul-25 03:33N 35°22' E 139°42'10 9.9
2014-Jul-25 02:33N 35°31' E 139°46'0 0.4
2014-Jul-25 01:33N 35°32' E 139°45'0 0.0
2014-Jul-25 00:33N 35°32' E 139°45'0 0.0
2014-Jul-24 23:33N 35°32' E 139°45'4 3.6
2014-Jul-24 22:33N 35°30' E 139°49'1111.3
2014-Jul-24 21:33N 35°35' E 140°02'4 3.6
2014-Jul-24 20:33N 35°36' E 140°06'0 0.0
2014-Jul-24 19:33N 35°36' E 140°06'0 0.0
2014-Jul-24 18:33N 35°36' E 140°06'0 0.0
2014-Jul-24 17:33N 35°36' E 140°06'0 0.0
2014-Jul-24 16:33N 35°36' E 140°06'0 0.0
2014-Jul-24 15:33N 35°36' E 140°06'0 0.0
2014-Jul-24 14:33N 35°36' E 140°06'0 0.0
2014-Jul-24 13:33N 35°36' E 140°06'0 0.0
2014-Jul-24 12:33N 35°36' E 140°06'0 0.0
2014-Jul-24 11:33N 35°36' E 140°06'0 0.0
2014-Jul-24 10:33N 35°36' E 140°06'0 0.0
2014-Jul-24 09:33N 35°36' E 140°06'0 0.0
2014-Jul-24 08:33N 35°36' E 140°06'0 0.0
2014-Jul-24 07:33N 35°36' E 140°06'0 0.0
2014-Jul-24 06:33N 35°36' E 140°06'7 6.6
2014-Jul-24 05:33N 35°38' E 139°59'3 3.2
2014-Jul-24 04:33N 35°40' E 139°56'0 0.0
2014-Jul-24 03:33N 35°40' E 139°56'4 4.3
2014-Jul-24 02:33N 35°37' E 139°59'10 8.4
2014-Jul-24 01:25N 35°27' E 139°58'0 0.0
2014-Jul-24 00:28N 35°27' E 139°58'0 0.0
2014-Jul-23 23:29N 35°27' E 139°58'3 2.4
2014-Jul-23 22:26N 35°28' E 139°56'0 0.0
2014-Jul-23 21:32N 35°28' E 139°56'0 0.0
2014-Jul-23 20:29N 35°28' E 139°56'0 0.0
2014-Jul-23 19:32N 35°28' E 139°56'0 0.0
2014-Jul-23 18:29N 35°28' E 139°56'0 0.0
2014-Jul-23 17:32N 35°28' E 139°56'0 0.0
2014-Jul-23 16:32N 35°28' E 139°56'0 0.0
2014-Jul-23 15:32N 35°28' E 139°56'2 2.3
2014-Jul-23 14:33N 35°28' E 139°53'1211.5
2014-Jul-23 13:33N 35°19' E 139°44'1111.1
2014-Jul-23 12:33N 35°08' E 139°45'1211.9
2014-Jul-23 11:32N 34°60' E 139°35'1813.1
2014-Jul-23 10:10N 34°49' E 139°17'226 9.8
2014-Jul-22 11:08N 34°06' E 134°48'  
2014-Jul-15 10:30N 34°38' E 135°00'1011.0
2014-Jul-15 09:33N 34°37' E 135°13'5 4.7
2014-Jul-15 08:33N 34°39' E 135°18'0 0.0
2014-Jul-15 07:33N 34°39' E 135°18'0 0.0
2014-Jul-15 06:33N 34°39' E 135°18'0 0.0
2014-Jul-15 05:33N 34°39' E 135°18'0 0.0
2014-Jul-15 04:33N 34°39' E 135°18'  

Dump ship's entire track history